(125440) = 1978 VU11 = 2001 VP117

Discovered at Socorro on 2001-11-12 by LINEAR.

Orbit

Orbit type: Main Belt

Note: WebGL enabled browser required.

epoch2023-09-13.0
epoch JD2460200.5
perihelion date2021-01-22.33531
perihelion JD2459236.83531
argument of perihelion (°)107.37425
ascending node (°)338.98225
inclination (°)2.23076
eccentricity0.1610075
perihelion distance (AU)2.0454825
Tisserand w.r.t. Jupiter3.5
ΔV w.r.t. Earth (km/sec)9.0
semimajor axis (AU)2.4380224
mean anomaly (°)249.50156
mean daily motion (°/day)0.25890910
aphelion distance (AU)2.831
period (years)3.81
P-vector [x]0.06328883
P-vector [y]0.90023141
P-vector [z]0.43078756
Q-vector [x]-0.99789760
Q-vector [y]0.06312165
Q-vector [z]0.01469793
absolute magnitude16.38
phase slope0.15
uncertainty0
referenceMPO 777638
observations used797
oppositions16
arc length (days)11924
first opposition used1991
last opposition used2023
residual rms (arc-secs)0.77
perturbers coarse indicatorM-v
perturbers precise indicator003Ek
first observation date used1991-02-19.0
last observation date used2023-10-13.0
computer nameMPCLINUX
JD of orbit computation2456760.649624
perihelion JD uncertainty (days)1.2779E-04
argument of perihelion uncertainty (°)1.2066E-04
ascending node uncertainty (°)1.1500E-04
inclination uncertainty (°)6.3831E-06
eccentricity uncertainty 4.1701E-08
perihelion distance uncertainty (AU)1.0046E-07
Minimum Orbit Intersection Distances (in AU)
for orbit epoch: 2460200.5, reference: E2023-TO1
Mercury1.73737
Venus1.326
Earth1.06181
Mars0.45373
Jupiter2.37348
Saturn7.00874
Uranus16.0207
Neptune27.4602

Observations

821 total observations over interval: 1978 11 01.94664 – 2023 10 13.279478
These data are available for download (format description).

Date (UT) J2000 RA J2000 Dec Magn Location Ref
1978 11 01.94664 03 37 15.72 +23 21 20.4   010 – Caussols MPC 4941
1991 02 19.38555 10 53 40.59 +07 15 45.4 20.1 V 691 – Steward Observatory, Kitt Peak-Spacewatch MPS 78168
1991 02 19.40623 10 53 39.36 +07 15 50.4 20.1 V 691 – Steward Observatory, Kitt Peak-Spacewatch MPS 78168
1991 02 19.43535 10 53 37.64 +07 15 58.7 20.3 V 691 – Steward Observatory, Kitt Peak-Spacewatch MPS 78168
1997 10 30.29939 02 38 56.03 +19 17 27.8 17.9   704 – Lincoln Laboratory ETS, New Mexico MPS 44912
1997 10 30.32011 02 38 54.80 +19 17 23.3 17.7   704 – Lincoln Laboratory ETS, New Mexico MPS 44912
1997 10 30.34103 02 38 53.46 +19 17 18.1 17.6   704 – Lincoln Laboratory ETS, New Mexico MPS 44912
1997 10 30.36163 02 38 52.18 +19 17 14.9 17.9   704 – Lincoln Laboratory ETS, New Mexico MPS 44912
1997 10 31.34752 02 37 53.49 +19 13 47.4   704 – Lincoln Laboratory ETS, New Mexico MPS 44912
1997 10 31.36433 02 37 52.37 +19 13 43.1   704 – Lincoln Laboratory ETS, New Mexico MPS 44912
1997 10 31.38050 02 37 51.40 +19 13 41.0   704 – Lincoln Laboratory ETS, New Mexico MPS 44912
1997 10 31.39701 02 37 50.36 +19 13 38.1   704 – Lincoln Laboratory ETS, New Mexico MPS 44912
1997 10 31.41654 02 37 49.20 +19 13 33.4   704 – Lincoln Laboratory ETS, New Mexico MPS 44912
1997 11 06.13630 02 32 05.36 +18 51 41.4 18.7   704 – Lincoln Laboratory ETS, New Mexico MPS 44912
1997 11 06.15626 02 32 04.08 +18 51 37.1   704 – Lincoln Laboratory ETS, New Mexico MPS 44912
1997 11 06.17642 02 32 03.00 +18 51 30.7   704 – Lincoln Laboratory ETS, New Mexico MPS 44912
1997 11 06.19624 02 32 01.72 +18 51 26.7   704 – Lincoln Laboratory ETS, New Mexico MPS 44912
1997 11 06.21624 02 32 00.44 +18 51 21.2   704 – Lincoln Laboratory ETS, New Mexico MPS 44912
2000 07 30.05086 19 54 36.52 -23 06 10.0 19.3 R 807 – Cerro Tololo Observatory, La Serena MPS 49633
2000 07 30.16548 19 54 29.43 -23 06 23.6   807 – Cerro Tololo Observatory, La Serena MPS 49633
2001 11 12.36143 05 34 12.57 +27 14 41.9 19.0   704 – Lincoln Laboratory ETS, New Mexico MPS 44912
2001 11 12.37593 05 34 12.11 +27 14 43.1 19.4   704 – Lincoln Laboratory ETS, New Mexico MPS 44912
2001 11 12.39038 05 34 11.69 +27 14 43.8 19.3   704 – Lincoln Laboratory ETS, New Mexico MPS 44912
2001 11 12.40485 05 34 11.27 +27 14 44.8 19.6   704 – Lincoln Laboratory ETS, New Mexico MPS 44912
2001 11 12.41930 05 34 10.81 +27 14 45.5 19.3   704 – Lincoln Laboratory ETS, New Mexico MPS 44912
2001 11 19.36684 05 30 12.75 +27 20 22.0 19.0   704 – Lincoln Laboratory ETS, New Mexico MPS 44912
2001 11 19.38154 05 30 12.05 +27 20 22.9 19.3   704 – Lincoln Laboratory ETS, New Mexico MPS 44912
2001 11 19.39623 05 30 11.36 +27 20 23.2 19.4   704 – Lincoln Laboratory ETS, New Mexico MPS 44912
2001 11 19.41093 05 30 10.73 +27 20 23.7 19.2   704 – Lincoln Laboratory ETS, New Mexico MPS 44912
2001 11 24.29326 05 26 24.50 +27 22 05.5 18.8   704 – Lincoln Laboratory ETS, New Mexico MPS 49633
2001 11 24.30799 05 26 23.68 +27 22 05.4 18.9   704 – Lincoln Laboratory ETS, New Mexico MPS 49633
2001 11 24.32272 05 26 22.87 +27 22 05.9 19.3   704 – Lincoln Laboratory ETS, New Mexico MPS 49633
2001 11 24.35215 05 26 21.35 +27 22 05.8 19.0   704 – Lincoln Laboratory ETS, New Mexico MPS 49633
2001 12 10.30555 05 10 19.52 +27 11 30.6 18.2   704 – Lincoln Laboratory ETS, New Mexico MPS 44912
2001 12 10.32063 05 10 18.54 +27 11 28.9 18.7   704 – Lincoln Laboratory ETS, New Mexico MPS 44912
2001 12 10.33564 05 10 17.54 +27 11 27.4 19.1   704 – Lincoln Laboratory ETS, New Mexico MPS 44912
2001 12 10.35088 05 10 16.47 +27 11 26.7 18.6   704 – Lincoln Laboratory ETS, New Mexico MPS 44912
2001 12 10.36591 05 10 15.46 +27 11 25.6 18.4   704 – Lincoln Laboratory ETS, New Mexico MPS 44912
2001 12 11.21853 05 09 20.04 +27 10 07.0 18.6   704 – Lincoln Laboratory ETS, New Mexico MPS 44912
2001 12 11.23435 05 09 18.88 +27 10 06.8 19.4   704 – Lincoln Laboratory ETS, New Mexico MPS 44912
2001 12 11.25001 05 09 17.87 +27 10 04.1 18.6   704 – Lincoln Laboratory ETS, New Mexico MPS 44912
2001 12 11.26644 05 09 16.77 +27 10 02.3 19.0   704 – Lincoln Laboratory ETS, New Mexico MPS 44912
2001 12 11.28215 05 09 15.73 +27 10 00.2 19.8   704 – Lincoln Laboratory ETS, New Mexico MPS 44912
2001 12 15.23486 05 04 59.26 +27 03 04.4 18.0   704 – Lincoln Laboratory ETS, New Mexico MPS 44912
2001 12 15.24996 05 04 58.23 +27 03 02.6 18.7   704 – Lincoln Laboratory ETS, New Mexico MPS 44912
2001 12 15.26506 05 04 57.22 +27 03 01.0 18.3   704 – Lincoln Laboratory ETS, New Mexico MPS 44912
2001 12 15.28016 05 04 56.19 +27 02 59.0 18.7   704 – Lincoln Laboratory ETS, New Mexico MPS 44912
2001 12 15.29527 05 04 55.24 +27 02 58.0 18.4   704 – Lincoln Laboratory ETS, New Mexico MPS 44912
2001 12 18.29565 05 01 46.02 +26 56 49.7 18.5   704 – Lincoln Laboratory ETS, New Mexico MPS 44912
2001 12 18.31088 05 01 45.01 +26 56 47.6 18.7   704 – Lincoln Laboratory ETS, New Mexico MPS 44912
2001 12 18.32610 05 01 44.03 +26 56 45.6 19.0   704 – Lincoln Laboratory ETS, New Mexico MPS 44912
2001 12 18.34134 05 01 43.04 +26 56 43.8 18.7   704 – Lincoln Laboratory ETS, New Mexico MPS 44912
2001 12 18.35656 05 01 42.06 +26 56 41.7 18.8   704 – Lincoln Laboratory ETS, New Mexico MPS 44912
2001 12 19.23121 05 00 48.78 +26 54 45.4 18.9   704 – Lincoln Laboratory ETS, New Mexico MPS 44912
2001 12 19.24636 05 00 47.78 +26 54 42.8 18.9   704 – Lincoln Laboratory ETS, New Mexico MPS 44912
2001 12 19.26149 05 00 46.80 +26 54 40.7 19.0   704 – Lincoln Laboratory ETS, New Mexico MPS 44912
2001 12 19.27662 05 00 45.85 +26 54 38.3 19.0   704 – Lincoln Laboratory ETS, New Mexico MPS 44912
2001 12 19.29176 05 00 44.85 +26 54 36.3 18.9   704 – Lincoln Laboratory ETS, New Mexico MPS 44912
2001 12 20.25050 04 59 47.29 +26 52 28.0 18.6   704 – Lincoln Laboratory ETS, New Mexico MPS 46711
2001 12 20.26561 04 59 46.24 +26 52 25.0 19.0   704 – Lincoln Laboratory ETS, New Mexico MPS 46711
2001 12 20.28072 04 59 45.42 +26 52 24.7 19.2   704 – Lincoln Laboratory ETS, New Mexico MPS 46711
2001 12 20.29583 04 59 44.34 +26 52 20.6 19.0   704 – Lincoln Laboratory ETS, New Mexico MPS 46711
2002 01 08.22655 04 45 49.08 +26 04 44.3 19.4   704 – Lincoln Laboratory ETS, New Mexico MPS 55149
2002 01 08.24165 04 45 48.65 +26 04 42.0 19.6   704 – Lincoln Laboratory ETS, New Mexico MPS 55149
2002 01 08.25676 04 45 48.27 +26 04 40.8 19.7   704 – Lincoln Laboratory ETS, New Mexico MPS 55149
2002 01 14.14934 04 44 03.30 +25 51 03.7 19.8   704 – Lincoln Laboratory ETS, New Mexico MPS 55149
2002 01 14.16456 04 44 03.01 +25 51 02.5 20.6   704 – Lincoln Laboratory ETS, New Mexico MPS 55149
2002 01 14.17979 04 44 02.86 +25 50 57.6 20.5   704 – Lincoln Laboratory ETS, New Mexico MPS 55149
2002 01 14.19502 04 44 02.66 +25 50 53.8 20.9   704 – Lincoln Laboratory ETS, New Mexico MPS 55149
2002 01 14.21024 04 44 02.35 +25 50 54.7 20.6   704 – Lincoln Laboratory ETS, New Mexico MPS 55149
2002 02 06.18069 04 50 11.10 +25 18 12.8 20.5   704 – Lincoln Laboratory ETS, New Mexico MPS 55149
2002 02 06.19535 04 50 11.75 +25 18 12.0 20.0   704 – Lincoln Laboratory ETS, New Mexico MPS 55149
2002 02 06.22514 04 50 12.87 +25 18 10.9 20.0   704 – Lincoln Laboratory ETS, New Mexico MPS 55149
2004 08 12.20808 21 15 59.04 -17 18 14.5 20.0   704 – Lincoln Laboratory ETS, New Mexico MPS 111060
2004 08 12.21786 21 15 58.46 -17 18 15.6 19.8   704 – Lincoln Laboratory ETS, New Mexico MPS 111060
2004 08 12.23757 21 15 57.30 -17 18 17.9 20.0   704 – Lincoln Laboratory ETS, New Mexico MPS 111060
2005 11 25.44473 08 22 16.50 +22 26 28.6 20.2 V 703 – Catalina Sky Survey MPS 151930
2005 11 25.45457 08 22 16.82 +22 26 29.0 19.6 V 703 – Catalina Sky Survey MPS 151930
2005 11 25.46448 08 22 16.96 +22 26 28.0 19.3 V 703 – Catalina Sky Survey MPS 151930
2005 11 25.47435 08 22 17.22 +22 26 26.5 19.2 V 703 – Catalina Sky Survey MPS 151930
2005 11 27.42959 08 23 06.68 +22 24 56.4 19.3 R 699 – Lowell Observatory-LONEOS MPS 151930
2005 11 27.46156 08 23 07.19 +22 24 55.6   699 – Lowell Observatory-LONEOS MPS 151930
2005 11 27.49355 08 23 07.92 +22 24 54.5   699 – Lowell Observatory-LONEOS MPS 151930
2005 11 27.52554 08 23 08.76 +22 24 50.7   699 – Lowell Observatory-LONEOS MPS 151930
